When you browse on this site, cookies collect data to enhance your experience and personalize the content and advertising you see.
Visit our Privacy Policy to learn more. By continuing to use the site, you agree to this use of cookies and data.
  • In Austria
  • List of Countries
  • For 7 days
  • Water Temperature
  • Weather Map
  • News
  • Weather Widgets
  • user-avatar
    Login

    Hourly Weather Lethem

    Today, 26 February, Wednesday

    Time Temperature Precipitation Wind Pressure Humidity
    00:00 +28°C° 0 mm 5 mps 750 mmHg 64%
    01:00 +28°C° 0 mm 5 mps 750 mmHg 67%
    02:00 +27°C° 0 mm 6 mps 750 mmHg 71%
    03:00 +26°C° 0 mm 5 mps 750 mmHg 73%
    04:00 +26°C° 0 mm 5 mps 749 mmHg 74%
    05:00 +25°C° 0 mm 5 mps 749 mmHg 76%
    06:00 +26°C° 0 mm 5 mps 750 mmHg 74%
    07:00 +27°C° 0 mm 6 mps 751 mmHg 71%
    08:00 +27°C° 0 mm 6 mps 751 mmHg 68%
    09:00 +29°C° 0 mm 6 mps 751 mmHg 60%
    10:00 +33°C° 0 mm 6 mps 752 mmHg 52%
    11:00 +35°C° 0 mm 6 mps 752 mmHg 44%
    12:00 +36°C° 0 mm 6 mps 751 mmHg 38%
    13:00 +39°C° 0 mm 5 mps 749 mmHg 32%
    14:00 +40°C° 0 mm 5 mps 748 mmHg 26%
    15:00 +40°C° 0 mm 5 mps 748 mmHg 26%
    16:00 +39°C° 0 mm 6 mps 747 mmHg 26%
    17:00 +39°C° 0 mm 6 mps 747 mmHg 26%
    18:00 +36°C° 0 mm 5 mps 747 mmHg 32%
    19:00 +34°C° 0 mm 5 mps 748 mmHg 37%
    20:00 +32°C° 0 mm 5 mps 749 mmHg 43%
    21:00 +30°C° 0 mm 5 mps 749 mmHg 47%
    22:00 +29°C° 0 mm 5 mps 750 mmHg 52%
    23:00 +29°C° 0 mm 4 mps 750 mmHg 56%

    Tomorrow, 27 February, Thursday

    Time Temperature Precipitation Wind Pressure Humidity
    00:00 +28°C° 0 mm 4 mps 750 mmHg 60%
    01:00 +27°C° 0 mm 5 mps 750 mmHg 64%
    02:00 +26°C° 0 mm 5 mps 749 mmHg 68%
    03:00 +26°C° 0 mm 5 mps 749 mmHg 70%
    04:00 +25°C° 0 mm 5 mps 749 mmHg 73%
    05:00 +23°C° 0 mm 5 mps 749 mmHg 75%
    06:00 +25°C° 0 mm 5 mps 750 mmHg 72%
    07:00 +26°C° 0 mm 6 mps 751 mmHg 68%
    08:00 +27°C° 0 mm 6 mps 752 mmHg 65%
    09:00 +29°C° 0 mm 6 mps 752 mmHg 55%
    10:00 +33°C° 0 mm 5 mps 752 mmHg 44%
    11:00 +36°C° 0 mm 5 mps 752 mmHg 34%
    12:00 +37°C° 0 mm 5 mps 751 mmHg 31%
    13:00 +39°C° 0 mm 5 mps 749 mmHg 28%
    14:00 +41°C° 0 mm 4 mps 748 mmHg 24%
    15:00 +40°C° 0 mm 4 mps 748 mmHg 25%
    16:00 +40°C° 0 mm 5 mps 747 mmHg 26%
    17:00 +40°C° 0 mm 5 mps 747 mmHg 27%
    18:00 +37°C° 0 mm 5 mps 748 mmHg 32%
    19:00 +35°C° 0 mm 5 mps 748 mmHg 37%
    20:00 +33°C° 0 mm 5 mps 749 mmHg 41%
    21:00 +32°C° 0 mm 5 mps 749 mmHg 44%
    22:00 +30°C° 0 mm 5 mps 750 mmHg 47%
    23:00 +29°C° 0 mm 5 mps 751 mmHg 50%

    Day after tomorrow, 28 February, Friday

    Time Temperature Precipitation Wind Pressure Humidity
    00:00 +28°C° 0 mm 6 mps 750 mmHg 53%
    01:00 +27°C° 0 mm 6 mps 750 mmHg 57%
    02:00 +26°C° 0 mm 7 mps 750 mmHg 60%
    03:00 +26°C° 0 mm 6 mps 750 mmHg 64%
    04:00 +24°C° 0 mm 6 mps 750 mmHg 67%
    05:00 +23°C° 0 mm 6 mps 750 mmHg 71%
    06:00 +24°C° 0 mm 6 mps 751 mmHg 68%
    07:00 +26°C° 0 mm 6 mps 751 mmHg 65%
    08:00 +27°C° 0 mm 6 mps 752 mmHg 62%
    09:00 +30°C° 0 mm 6 mps 752 mmHg 54%
    10:00 +33°C° 0 mm 6 mps 752 mmHg 46%
    11:00 +36°C° 0 mm 6 mps 752 mmHg 38%
    12:00 +37°C° 0 mm 5 mps 751 mmHg 35%
    13:00 +39°C° 0 mm 5 mps 750 mmHg 32%
    14:00 +41°C° 0 mm 5 mps 749 mmHg 28%
    15:00 +41°C° 0 mm 5 mps 748 mmHg 29%
    16:00 +40°C° 0 mm 5 mps 747 mmHg 29%
    17:00 +40°C° 0 mm 5 mps 747 mmHg 29%
    18:00 +37°C° 0 mm 5 mps 747 mmHg 33%
    19:00 +35°C° 0 mm 5 mps 748 mmHg 37%
    20:00 +33°C° 0 mm 5 mps 749 mmHg 41%
    21:00 +32°C° 0 mm 5 mps 749 mmHg 45%
    22:00 +30°C° 0 mm 5 mps 750 mmHg 49%
    23:00 +29°C° 0 mm 5 mps 751 mmHg 53%

    29 February, Saturday

    Time Temperature Precipitation Wind Pressure Humidity
    00:00 +29°C° 0 mm 5 mps 750 mmHg 57%
    01:00 +28°C° 0 mm 5 mps 750 mmHg 62%
    02:00 +27°C° 0 mm 5 mps 750 mmHg 66%
    03:00 +26°C° 0 mm 5 mps 750 mmHg 69%
    04:00 +26°C° 0 mm 5 mps 750 mmHg 72%
    05:00 +25°C° 0 mm 5 mps 750 mmHg 75%
    06:00 +26°C° 0 mm 5 mps 751 mmHg 71%
    07:00 +27°C° 0 mm 6 mps 752 mmHg 67%
    08:00 +28°C° 0 mm 6 mps 752 mmHg 62%
    09:00 +30°C° 0 mm 5 mps 752 mmHg 54%
    10:00 +34°C° 0 mm 5 mps 752 mmHg 45%
    11:00 +37°C° 0 mm 5 mps 752 mmHg 36%
    12:00 +38°C° 0 mm 4 mps 751 mmHg 32%
    13:00 +40°C° 0 mm 4 mps 749 mmHg 29%
    14:00 +42°C° 0 mm 4 mps 748 mmHg 26%
    15:00 +41°C° 0 mm 4 mps 748 mmHg 26%
    16:00 +41°C° 0 mm 4 mps 747 mmHg 27%
    17:00 +41°C° 0 mm 4 mps 747 mmHg 27%
    18:00 +39°C° 0 mm 5 mps 748 mmHg 32%
    19:00 +36°C° 0 mm 5 mps 748 mmHg 37%
    20:00 +34°C° 0 mm 5 mps 749 mmHg 42%
    21:00 +33°C° 0 mm 5 mps 750 mmHg 48%
    22:00 +30°C° 0 mm 5 mps 750 mmHg 55%
    23:00 +29°C° 0 mm 4 mps 751 mmHg 61%

    1 March, Sunday

    Time Temperature Precipitation Wind Pressure Humidity
    00:00 +29°C° 0 mm 5 mps 750 mmHg 63%
    01:00 +28°C° 0 mm 5 mps 750 mmHg 66%
    02:00 +27°C° 0 mm 5 mps 750 mmHg 69%
    03:00 +27°C° 0 mm 5 mps 750 mmHg 69%
    04:00 +26°C° 0 mm 5 mps 750 mmHg 70%
    05:00 +25°C° 0 mm 5 mps 750 mmHg 70%
    06:00 +26°C° 0 mm 5 mps 751 mmHg 68%
    07:00 +27°C° 0 mm 5 mps 751 mmHg 67%
    08:00 +27°C° 0 mm 5 mps 752 mmHg 65%
    09:00 +30°C° 0 mm 5 mps 752 mmHg 57%
    10:00 +33°C° 0 mm 4 mps 752 mmHg 48%
    11:00 +36°C° 0 mm 4 mps 752 mmHg 40%
    12:00 +37°C° 0 mm 4 mps 751 mmHg 36%
    13:00 +40°C° 0 mm 4 mps 750 mmHg 33%
    14:00 +40°C° 0 mm 3 mps 748 mmHg 29%
    15:00 +40°C° 0 mm 3 mps 748 mmHg 29%
    16:00 +40°C° 0 mm 3 mps 747 mmHg 28%
    17:00 +40°C° 0 mm 3 mps 747 mmHg 28%
    18:00 +38°C° 0 mm 3 mps 747 mmHg 32%
    19:00 +36°C° 0 mm 3 mps 748 mmHg 36%
    20:00 +34°C° 0 mm 3 mps 749 mmHg 40%
    21:00 +33°C° 0 mm 3 mps 749 mmHg 42%
    22:00 +31°C° 0 mm 3 mps 749 mmHg 45%
    23:00 +30°C° 0 mm 3 mps 750 mmHg 48%

    2 March, Monday

    Time Temperature Precipitation Wind Pressure Humidity
    00:00 +29°C° 0 mm 4 mps 750 mmHg 53%
    01:00 +28°C° 0 mm 4 mps 749 mmHg 57%
    02:00 +28°C° 0 mm 5 mps 749 mmHg 62%
    03:00 +27°C° 0 mm 5 mps 749 mmHg 66%
    04:00 +26°C° 0 mm 5 mps 749 mmHg 70%
    05:00 +26°C° 0 mm 6 mps 750 mmHg 73%
    06:00 +26°C° 0 mm 6 mps 750 mmHg 71%
    07:00 +27°C° 0 mm 6 mps 751 mmHg 69%
    08:00 +28°C° 0 mm 6 mps 752 mmHg 66%
    09:00 +30°C° 0 mm 6 mps 752 mmHg 58%
    10:00 +33°C° 0 mm 5 mps 752 mmHg 49%
    11:00 +36°C° 0 mm 5 mps 752 mmHg 41%
    12:00 +37°C° 0 mm 5 mps 750 mmHg 36%
    13:00 +40°C° 0 mm 5 mps 749 mmHg 31%
    14:00 +41°C° 0 mm 5 mps 748 mmHg 26%
    15:00 +40°C° 0 mm 5 mps 747 mmHg 27%
    16:00 +40°C° 0 mm 5 mps 747 mmHg 27%
    17:00 +40°C° 0 mm 5 mps 746 mmHg 28%
    18:00 +37°C° 0 mm 4 mps 747 mmHg 32%
    19:00 +34°C° 0 mm 4 mps 747 mmHg 37%
    20:00 +31°C° 0 mm 3 mps 748 mmHg 41%
    21:00 +31°C° 0 mm 3 mps 748 mmHg 45%
    22:00 +30°C° 0 mm 4 mps 749 mmHg 49%
    23:00 +29°C° 0 mm 4 mps 749 mmHg 54%
    Show more